星链-4784 (STARLINK-4784 )

导读 | 豆包AI

STARLINK-4784是美国太空探索技术公司(SpaceX)“星链”项目的卫星,于2022年9月19日发射升空,归属美国所有。它是星链星座中之一,旨在为全球提供高速低延迟互联网覆盖,依托星链组网,服务全球偏远地区、移动场景的网络接入需求,是SpaceX大规模卫星互联网部署中的一员。

基本信息
目录编号:
53839
目录名称:
STARLINK-4784
国际标识:
2022-114X
轨道中心:
EARTH
卫星名称:
星链-4784
卫星全名:
星链-4784 (STARLINK-4784 )
卫星状态:
在轨 (已飞行1319 天)
发射日期:
2022-09-19 UTC
国别 :
美国 (US)
星等 :
--
轨道信息
数据来源 国际轨道数据
星历时间: 2026-04-30T14:15:50+0800
10小时前
查看轨道信息
半长轴: 6917.856km
偏心率: 0.0001394
轨道倾角: 53.217°
近地点辐角 84.415°
升交点赤经 62.854°
平近点角 275.700°
近地点: 538.754km
远地点: 540.684km
周期: 95.437分钟
每日圈数: 15.088482
详细信息
固有亮度:
5
最大亮度:
2.5
卫星平台:
Starlink v1.5
覆盖范围:
全球
运营商:
太空探索技术公司
运营商所在国:
美国
制造商(研发单位):
太空探索技术公司
制造商所在国:
美国
使用方式:
暂无
卫星简介
星链(Starlink)计划是由太空探索技术公司(SpaceX)提出的一个巨型低轨卫星互联网星座项目,计划在2019年至2024年间在太空搭建由约1.2万颗卫星组成的“星链”网络,其中1584颗将部署在地球上空550千米处的近地轨道,并从2020年开始工作。该卫星仍在工作。
2D轨道图
3D轨道图
轨道高度分析图
轨道倾角分析图
轨道综合分析图
查看轨道综合分析图